Lincoln, NE

10:57 AM CST on January 21, 2017 (GMT -0600)
Lincoln Municipal Airport

Weather History for KLNK - November, 2012

Change the Weather History Date:

Sunday, November 18, 2012

  Actual Average Record
Temperature  
Mean Temperature 50 °F 38 °F  
Max Temperature 61 °F 49 °F 78 °F (1908)
Min Temperature 38 °F 26 °F 4 °F (1891)
Degree Days  
Heating Degree Days 15 27  
Month to date heating degree days 374 411  
Since 1 July heating degree days 956 890  
Cooling Degree Days 0 0  
Month to date cooling degree days 0 0  
Year to date cooling degree days 1491 1173  
Moisture  
Dew Point 32 °F    
Average Humidity 50    
Maximum Humidity 64    
Minimum Humidity 36    
Precipitation  
Precipitation T in 0.05 in 0.68 in (1948)
Month to date precipitation 0.15 0.93  
Year to date precipitation 17.64 27.50  
Snow  
Snow 0.00 in 0.10 in - ()
Month to date snowfall 0.0 0.9  
Since 1 July snowfall 0.0 1.6  
Snow Depth 0.00 in    
Sea Level Pressure  
Sea Level Pressure 30.09 in    
Wind  
Wind Speed 14 mph (South)    
Max Wind Speed 24 mph    
Max Gust Speed 30 mph    
Visibility 10 miles    
Events Rain    
T = Trace of Precipitation, MM = Missing Value Source: NWS Daily Summary

Daily Weather History Graph

Daily Weather History Graph

Search for Another Location

Airport or City:

Trip Planner

Search our weather history database for the weather conditions in past years. The results will help you decide how hot, cold, wet, or windy it might be!

Date:

Astronomy

Nov. 18, 2012 Rise Set
Actual Time 7:18 AM CST 5:05 PM CST
Civil Twilight 6:48 AM CST 5:35 PM CST
Nautical Twilight 6:15 AM CST 6:09 PM CST
Astronomical Twilight 5:42 AM CST 6:41 PM CST
Moon 11:45 AM CST (11/18) 10:27 PM CST (11/18)
Length of Visible Light 10h 47m
Length of Day
9h 47m
Waxing Crescent, 30% of the Moon is Illuminated
Nov 18
Waxing Crescent
Nov 20
First Quarter
Nov 28
Full
Dec 6
Last Quarter
Dec 13
New

Hourly Weather History & Observations

Time (CST) Temp. Windchill Dew Point Humidity Pressure Visibility Wind Dir Wind Speed Gust Speed Precip Events Conditions
12:54 AM 42.1 °F 36.6 °F 28.0 °F 58% 30.15 in 10.0 mi South 9.2 mph - N/A   Clear
1:54 AM 42.1 °F 36.1 °F 27.0 °F 55% 30.14 in 10.0 mi South 10.4 mph - N/A   Clear
2:54 AM 41.0 °F 35.2 °F 27.0 °F 57% 30.14 in 10.0 mi South 9.2 mph - N/A   Clear
3:54 AM 43.0 °F 37.2 °F 28.0 °F 56% 30.13 in 10.0 mi South 10.4 mph - N/A   Clear
4:54 AM 41.0 °F 34.7 °F 28.0 °F 60% 30.14 in 10.0 mi South 10.4 mph - N/A   Clear
5:54 AM 39.9 °F 33.9 °F 28.0 °F 63% 30.14 in 10.0 mi SSE 9.2 mph - N/A   Clear
6:54 AM 39.0 °F 34.0 °F 28.0 °F 65% 30.14 in 10.0 mi SSE 6.9 mph - N/A   Clear
7:54 AM 39.9 °F 35.8 °F 28.9 °F 65% 30.14 in 10.0 mi South 5.8 mph - N/A   Clear
8:54 AM 46.0 °F 41.0 °F 30.0 °F 54% 30.14 in 10.0 mi South 10.4 mph - N/A   Clear
9:54 AM 53.1 °F - 30.0 °F 41% 30.13 in 10.0 mi SSW 17.3 mph - N/A   Clear
10:54 AM 57.9 °F - 30.0 °F 35% 30.12 in 10.0 mi South 18.4 mph 23.0 mph N/A   Clear
11:54 AM 57.9 °F - 30.0 °F 35% 30.08 in 10.0 mi SSW 17.3 mph 21.9 mph N/A   Clear
12:54 PM 59.0 °F - 33.1 °F 38% 30.07 in 10.0 mi South 13.8 mph - N/A   Clear
1:54 PM 59.0 °F - 33.8 °F 39% 30.04 in 10.0 mi SSE 18.4 mph - N/A   Clear
2:54 PM 61.0 °F - 36.0 °F 39% 30.02 in 10.0 mi South 17.3 mph 21.9 mph N/A   Clear
3:54 PM 60.1 °F - 37.9 °F 44% 30.03 in 10.0 mi SSE 12.7 mph - N/A   Partly Cloudy
4:54 PM 60.1 °F - 36.0 °F 41% 30.03 in 10.0 mi SSE 21.9 mph 28.8 mph N/A   Partly Cloudy
5:54 PM 57.9 °F - 36.0 °F 44% 30.04 in 10.0 mi SSE 18.4 mph - N/A   Partly Cloudy
6:54 PM 55.9 °F - 37.9 °F 51% 30.07 in 10.0 mi South 15.0 mph - 0.00 in Rain Light Rain
7:54 PM 55.9 °F - 35.1 °F 45% 30.04 in 10.0 mi South 20.7 mph - 0.00 in   Clear
8:54 PM 54.0 °F - 35.1 °F 49% 30.05 in 10.0 mi SSE 13.8 mph - N/A   Clear
9:54 PM 53.1 °F - 35.1 °F 50% 30.05 in 10.0 mi South 16.1 mph - N/A   Clear
10:54 PM 51.1 °F - 35.1 °F 54% 30.04 in 10.0 mi SSE 12.7 mph - N/A   Clear
11:54 PM 48.9 °F - 35.1 °F 59% 30.03 in 10.0 mi South 12.7 mph - N/A   Clear